Showing default

STRIX-5, 65971

Orbit data source: Space-Track

STRIX-5, 65971 is a payload satellite owned by Synspective (JP) in LEO that was launched on Tue, 14 Oct 2025 UTC via an ELECTRON launch vehicle from the Rocket Lab Launch Complex (RLLC). Payload-class satellites include a variety of spacecraft equipped with specific instruments for various scientific and technological missions. These include communications satellites like Starlink; space stations such as the ISS; scientific satellites like the Hubble; Earth observation satellites from companies like Planet Labs, Umbra, and HawkEye 360; GPS; miniature CubeSats for education and research; and military/defense satellites.

Loading next visibility...
Identifier
65971, 2025-229A
Orbit
LEO
Country
Flag of JPJP / JPN
Related business
Manufacturer
Synspective
Mission
Operational spacecraft
Bus & Motor
STRIX, Unknown motor
Mass
150 kg wet, 150 kg dry
Launch date (UTC)
2025-10-14 (1 month ago)
Launch vehicle
ELECTRON
Launch site
Rocket Lab Launch Complex (RLLC)
Object type
Payload
Rocket body
Debris
Shape & HBR
Unknown shape, 1.0 m
Radar Cross Section
RCS unknown

Expand to show TLE details & history
Last TLE update: 2 days ago

TLE from 2 days ago
0 STRIX-5
1 65971U 25229A   25312.78837537  .00009329  00000-0  70607-3 0  9995
2 65971  41.9286  67.3873 0038489  49.1993 311.2161 15.01809638  3808
Epoch: 2025-11-08T18:55Z
TLE epoch observation values (Epoch: 2025-11-08T18:55:15.631Z)
Latitude
-0.00003°
Longitude
95.35918°
Altitude
543.439 km
Speed
7.602 km/s
True Right ascension
04h 29m 32s
True Declination
0° 00' 00"
Sunlit
Object was in full shadow at epoch
Visualization orbit readout
Latitude
Unknown
Longitude
Unknown
Altitude
Unknown
Speed
Unknown
Apparent Right ascension
Unknown
Apparent Declination
Unknown
Sunlit
N/A
Visualization observer readout
Local Sidereal Time
03:19:03
Azimuth
Unknown
Elevation
Unknown
Doppler factor
Unknown
Orbital elements
Apogee altitude
590.134 km
Perigee altitude
536.7 km
Semi-major axis
6,941.554 km
Eccentricity
0.00385
Inclination
41.9286°
RAAN
67.3873°
Arg. of periapsis
49.1993°
True anomaly
310.88327°
Mean anomaly
311.2161°
Eccentric anomaly
311.04979°
Mean motion
3.75282 °/min
Orbital period
95.93 mins
BSTAR
0.00070607
Loading maneuver chart data...
Computing Atmospheric mass density...
Loading historical data...
Loading historical data...
Loading historical data...
Loading historical data...
Loading historical data...
Loading historical data...
Loading historical data...
Other satellites on launch #229 in the year 2025 (2025-10-14 UTC)

Documentation

Showing up to 5 results
|